Location: Clermont
(50.2608°N, 4.3172°E)
Time: 07:23:13
(UTC+00:00)

IGS 5A - Pass Details

Date: 13 August 2020
Orbit: 583 x 588 km, 97.6° (Epoch: 21 September)

Event Time Altitude Azimuth Distance (km) Brightness Sun altitude
Exits shadow 20:15:57 14° 146° (SE) 1,689 5.2 -10.6°
Maximum altitude 20:19:26 53° 71° (ENE) 730 3.7 -11.0°
Drops below altitude 10° 20:23:30 10° 355° (N) 1,928 6.8 -11.5°
Sets 20:25:42 0° 351° (N) 2,834 7.8 -11.8°
